| time (UTC) | temp C | wind direction | speed KPH | gust KPH | rain 1hr cm | rain 24hr cm | rain mn cm | humidity % | barometer mb |
| 20260507041003 | 13 | 273 | 6.4 | 17.7 | 0.00 | 0.00 | 0.00 | 86 | 1018.9 |
| 20260507040503 | 13 | 271 | 9.7 | 22.5 | 0.00 | 0.00 | 0.00 | 86 | 1018.8 |
| 20260507040003 | 13 | 270 | 9.7 | 22.5 | 0.00 | 0.00 | 0.00 | 86 | 1018.7 |
| 20260507035503 | 13 | 269 | 11.3 | 24.1 | 0.00 | 0.00 | 0.00 | 86 | 1018.7 |
| 20260507035003 | 13 | 269 | 12.9 | 24.1 | 0.00 | 0.00 | 0.00 | 86 | 1018.6 |
| 20260507034524 | 13 | 268 | 11.3 | 19.3 | 0.00 | 0.00 | 0.00 | 86 | 1018.6 |
| 20260507034003 | 13 | 274 | 12.9 | 20.9 | 0.00 | 0.00 | 0.00 | 86 | 1018.7 |
| 20260507033503 | 13 | 275 | 12.9 | 20.9 | 0.00 | 0.00 | 0.00 | 86 | 1018.6 |
| 20260507033003 | 13 | 273 | 11.3 | 20.9 | 0.00 | 0.00 | 0.00 | 85 | 1018.6 |
| 20260507032503 | 13 | 273 | 11.3 | 19.3 | 0.00 | 0.00 | 0.00 | 85 | 1018.5 |
| 20260507032003 | 13 | 271 | 12.9 | 24.1 | 0.00 | 0.00 | 0.00 | 85 | 1018.5 |
| 20260507031503 | 13 | 267 | 11.3 | 24.1 | 0.00 | 0.00 | 0.00 | 85 | 1018.6 |
| 20260507031003 | 13 | 267 | 9.7 | 24.1 | 0.00 | 0.00 | 0.00 | 85 | 1018.4 |
| 20260507030503 | 13 | 269 | 11.3 | 22.5 | 0.00 | 0.00 | 0.00 | 84 | 1018.3 |
| 20260507030003 | 13 | 272 | 12.9 | 24.1 | 0.00 | 0.00 | 0.00 | 84 | 1018.3 |
| 20260507025524 | 13 | 275 | 12.9 | 24.1 | 0.00 | 0.00 | 0.00 | 83 | 1018.2 |
| 20260507025003 | 13 | 277 | 12.9 | 29.0 | 0.00 | 0.00 | 0.00 | 83 | 1018.2 |
| 20260507024503 | 13 | 280 | 11.3 | 29.0 | 0.00 | 0.00 | 0.00 | 83 | 1018.1 |
| 20260507024003 | 14 | 279 | 11.3 | 24.1 | 0.00 | 0.00 | 0.00 | 82 | 1018.1 |
| 20260507023503 | 14 | 281 | 12.9 | 24.1 | 0.00 | 0.00 | 0.00 | 81 | 1018.1 |
| 20260507023003 | 14 | 284 | 12.9 | 24.1 | 0.00 | 0.00 | 0.00 | 81 | 1017.9 |
| 20260507022503 | 15 | 283 | 12.9 | 24.1 | 0.00 | 0.00 | 0.00 | 80 | 1018.0 |
| 20260507022003 | 15 | 282 | 11.3 | 24.1 | 0.00 | 0.00 | 0.00 | 80 | 1018.1 |
| 20260507021503 | 15 | 286 | 11.3 | 24.1 | 0.00 | 0.00 | 0.00 | 80 | 1018.1 |
| 20260507021003 | 15 | 284 | 12.9 | 24.1 | 0.00 | 0.00 | 0.00 | 79 | 1018.0 |
| 20260507020524 | 15 | 282 | 12.9 | 24.1 | 0.00 | 0.00 | 0.00 | 79 | 1018.1 |
| 20260507020003 | 15 | 281 | 12.9 | 20.9 | 0.00 | 0.00 | 0.00 | 79 | 1018.1 |
| 20260507015503 | 15 | 282 | 11.3 | 19.3 | 0.00 | 0.00 | 0.00 | 78 | 1018.2 |
| 20260507015004 | 15 | 289 | 12.9 | 29.0 | 0.00 | 0.00 | 0.00 | 78 | 1018.1 |
| 20260507014503 | 15 | 292 | 12.9 | 29.0 | 0.00 | 0.00 | 0.00 | 77 | 1018.1 |
| 20260507014024 | 16 | 291 | 11.3 | 24.1 | 0.00 | 0.00 | 0.00 | 77 | 1018.2 |
| 20260507013503 | 16 | 284 | 12.9 | 24.1 | 0.00 | 0.00 | 0.00 | 76 | 1018.0 |
| 20260507013003 | 16 | 284 | 14.5 | 25.7 | 0.00 | 0.00 | 0.00 | 76 | 1018.1 |
| 20260507012503 | 16 | 289 | 11.3 | 25.7 | 0.00 | 0.00 | 0.00 | 75 | 1018.0 |
| 20260507012003 | 16 | 291 | 11.3 | 24.1 | 0.00 | 0.00 | 0.00 | 75 | 1018.0 |
| 20260507011503 | 16 | 290 | 12.9 | 24.1 | 0.00 | 0.00 | 0.00 | 75 | 1018.0 |
| 20260507011003 | 16 | 289 | 11.3 | 22.5 | 0.00 | 0.00 | 0.00 | 74 | 1018.1 |
| 20260507010503 | 17 | 289 | 11.3 | 20.9 | 0.00 | 0.00 | 0.00 | 74 | 1018.0 |
| 20260507010024 | 17 | 298 | 11.3 | 22.5 | 0.00 | 0.00 | 0.00 | 74 | 1018.0 |
| 20260507005524 | 17 | 303 | 11.3 | 24.1 | 0.00 | 0.00 | 0.00 | 74 | 1018.0 |
| 20260507005003 | 17 | 297 | 11.3 | 24.1 | 0.00 | 0.00 | 0.00 | 73 | 1017.9 |
| 20260507004524 | 17 | 295 | 12.9 | 25.7 | 0.00 | 0.00 | 0.00 | 73 | 1017.9 |
| 20260507004003 | 17 | 299 | 12.9 | 25.7 | 0.00 | 0.00 | 0.00 | 73 | 1017.9 |
| 20260507003503 | 17 | 300 | 12.9 | 24.1 | 0.00 | 0.00 | 0.00 | 72 | 1017.8 |
| 20260507003003 | 17 | 295 | 12.9 | 25.7 | 0.00 | 0.00 | 0.00 | 72 | 1017.8 |
| 20260507002524 | 17 | 301 | 14.5 | 25.7 | 0.00 | 0.00 | 0.00 | 73 | 1017.7 |
| 20260507002003 | 17 | 303 | 16.1 | 27.4 | 0.00 | 0.00 | 0.00 | 72 | 1017.7 |
| 20260507001503 | 17 | 303 | 14.5 | 27.4 | 0.00 | 0.00 | 0.00 | 72 | 1017.8 |
| 20260507001024 | 17 | 303 | 12.9 | 22.5 | 0.00 | 0.00 | 0.00 | 71 | 1017.9 |
| 20260507000503 | 17 | 300 | 12.9 | 24.1 | 0.00 | 0.00 | 0.00 | 71 | 1017.8 |
| 20260507000003 | 17 | 300 | 12.9 | 25.7 | 0.00 | 0.00 | 0.00 | 71 | 1017.9 |
| 20260506235503 | 17 | 299 | 14.5 | 25.7 | 0.00 | 0.00 | 0.00 | 71 | 1017.9 |
| 20260506235003 | 18 | 303 | 14.5 | 25.7 | 0.00 | 0.00 | 0.00 | 71 | 1018.0 |
| 20260506234503 | 18 | 303 | 14.5 | 25.7 | 0.00 | 0.00 | 0.00 | 71 | 1018.0 |
| 20260506234003 | 18 | 293 | 14.5 | 24.1 | 0.00 | 0.00 | 0.00 | 70 | 1017.8 |
| 20260506233503 | 18 | 293 | 14.5 | 24.1 | 0.00 | 0.00 | 0.00 | 71 | 1017.6 |
| 20260506233003 | 18 | 299 | 14.5 | 24.1 | 0.00 | 0.00 | 0.00 | 70 | 1017.5 |
| 20260506232503 | 18 | 299 | 12.9 | 24.1 | 0.00 | 0.00 | 0.00 | 70 | 1017.7 |
| 20260506232003 | 18 | 284 | 14.5 | 25.7 | 0.00 | 0.00 | 0.00 | 72 | 1017.8 |
| 20260506231503 | 18 | 281 | 12.9 | 25.7 | 0.00 | 0.00 | 0.00 | 71 | 1017.9 |
| 20260506231003 | 18 | 281 | 12.9 | 27.4 | 0.00 | 0.00 | 0.00 | 72 | 1017.9 |
| 20260506230503 | 17 | 284 | 16.1 | 30.6 | 0.00 | 0.00 | 0.00 | 72 | 1018.0 |
| 20260506230003 | 17 | 304 | 16.1 | 30.6 | 0.00 | 0.00 | 0.00 | 72 | 1018.1 |
| 20260506225503 | 18 | 308 | 16.1 | 25.7 | 0.00 | 0.00 | 0.00 | 72 | 1018.2 |
| 20260506225003 | 18 | 300 | 14.5 | 27.4 | 0.00 | 0.00 | 0.00 | 71 | 1018.1 |
| 20260506224503 | 18 | 309 | 14.5 | 27.4 | 0.00 | 0.00 | 0.00 | 71 | 1018.1 |
| 20260506224003 | 18 | 309 | 14.5 | 27.4 | 0.00 | 0.00 | 0.00 | 72 | 1018.2 |
| 20260506223524 | 18 | 298 | 14.5 | 25.7 | 0.00 | 0.00 | 0.00 | 71 | 1018.4 |
| 20260506223003 | 18 | 297 | 14.5 | 27.4 | 0.00 | 0.00 | 0.00 | 71 | 1018.5 |
| 20260506222503 | 18 | 297 | 16.1 | 30.6 | 0.00 | 0.00 | 0.00 | 70 | 1018.4 |
| 20260506222003 | 18 | 298 | 14.5 | 30.6 | 0.00 | 0.00 | 0.00 | 70 | 1018.4 |
| 20260506221504 | 18 | 312 | 14.5 | 30.6 | 0.00 | 0.00 | 0.00 | 71 | 1018.6 |
| 20260506221003 | 18 | 323 | 16.1 | 30.6 | 0.00 | 0.00 | 0.00 | 71 | 1018.7 |
| 20260506220503 | 18 | 323 | 16.1 | 29.0 | 0.00 | 0.00 | 0.00 | 71 | 1018.6 |
| 20260506220003 | 18 | 318 | 17.7 | 30.6 | 0.00 | 0.00 | 0.00 | 71 | 1018.6 |
| 20260506215503 | 18 | 318 | 16.1 | 30.6 | 0.00 | 0.00 | 0.00 | 71 | 1018.6 |
| 20260506215003 | 18 | 320 | 16.1 | 30.6 | 0.00 | 0.00 | 0.00 | 70 | 1018.6 |
| 20260506214503 | 18 | 320 | 16.1 | 30.6 | 0.00 | 0.00 | 0.00 | 70 | 1018.6 |
| 20260506214024 | 18 | 312 | 14.5 | 27.4 | 0.00 | 0.00 | 0.00 | 69 | 1018.7 |
| 20260506213524 | 19 | 309 | 14.5 | 27.4 | 0.00 | 0.00 | 0.00 | 69 | 1018.8 |
| 20260506213003 | 18 | 315 | 14.5 | 27.4 | 0.00 | 0.00 | 0.00 | 70 | 1018.8 |
| 20260506212503 | 19 | 316 | 12.9 | 27.4 | 0.00 | 0.00 | 0.00 | 68 | 1019.0 |
| 20260506212024 | 19 | 313 | 14.5 | 25.7 | 0.00 | 0.00 | 0.00 | 69 | 1018.9 |
| 20260506211503 | 20 | 312 | 14.5 | 27.4 | 0.00 | 0.00 | 0.00 | 67 | 1019.0 |
| 20260506211003 | 20 | 309 | 11.3 | 27.4 | 0.00 | 0.00 | 0.00 | 66 | 1019.0 |
| 20260506210503 | 20 | 307 | 11.3 | 20.9 | 0.00 | 0.00 | 0.00 | 66 | 1018.9 |
| 20260506210003 | 20 | 311 | 11.3 | 20.9 | 0.00 | 0.00 | 0.00 | 66 | 1018.9 |
| 20260506205503 | 20 | 311 | 9.7 | 22.5 | 0.00 | 0.00 | 0.00 | 65 | 1019.0 |
| 20260506205003 | 20 | 307 | 9.7 | 22.5 | 0.00 | 0.00 | 0.00 | 65 | 1019.1 |
| 20260506204524 | 20 | 306 | 9.7 | 19.3 | 0.00 | 0.00 | 0.00 | 64 | 1019.2 |
| 20260506204003 | 20 | 304 | 9.7 | 19.3 | 0.00 | 0.00 | 0.00 | 66 | 1019.2 |
| 20260506203503 | 20 | 306 | 11.3 | 19.3 | 0.00 | 0.00 | 0.00 | 66 | 1019.3 |
| 20260506203003 | 20 | 316 | 11.3 | 19.3 | 0.00 | 0.00 | 0.00 | 65 | 1019.4 |
| 20260506202503 | 20 | 322 | 9.7 | 19.3 | 0.00 | 0.00 | 0.00 | 66 | 1019.4 |
| 20260506202003 | 20 | 322 | 9.7 | 19.3 | 0.00 | 0.00 | 0.00 | 66 | 1019.5 |
| 20260506201503 | 20 | 326 | 11.3 | 19.3 | 0.00 | 0.00 | 0.00 | 67 | 1019.5 |
| 20260506201003 | 19 | 327 | 11.3 | 19.3 | 0.00 | 0.00 | 0.00 | 66 | 1019.5 |
| 20260506200503 | 20 | 320 | 9.7 | 17.7 | 0.00 | 0.00 | 0.00 | 66 | 1019.5 |
| 20260506200003 | 20 | 321 | 9.7 | 17.7 | 0.00 | 0.00 | 0.00 | 65 | 1019.6 |
| 20260506195503 | 20 | 310 | 9.7 | 17.7 | 0.00 | 0.00 | 0.00 | 64 | 1019.6 |
| 20260506195003 | 20 | 309 | 8.0 | 17.7 | 0.00 | 0.00 | 0.00 | 64 | 1019.7 |
| 20260506194503 | 20 | 328 | 6.4 | 16.1 | 0.00 | 0.00 | 0.00 | 66 | 1019.9 |
| 20260506194003 | 19 | 331 | 8.0 | 16.1 | 0.00 | 0.00 | 0.00 | 66 | 1019.8 |
| 20260506193503 | 19 | 338 | 8.0 | 16.1 | 0.00 | 0.00 | 0.00 | 67 | 1019.9 |
| 20260506193003 | 19 | 352 | 6.4 | 16.1 | 0.00 | 0.00 | 0.00 | 66 | 1019.9 |
| 20260506192524 | 19 | 349 | 6.4 | 16.1 | 0.00 | 0.00 | 0.00 | 67 | 1019.9 |
| 20260506192003 | 18 | 326 | 8.0 | 16.1 | 0.00 | 0.00 | 0.00 | 67 | 1020.0 |
| 20260506191503 | 18 | 310 | 8.0 | 16.1 | 0.00 | 0.00 | 0.00 | 68 | 1020.0 |
| 20260506191003 | 18 | 324 | 8.0 | 14.5 | 0.00 | 0.00 | 0.00 | 68 | 1020.2 |
| 20260506190524 | 18 | 342 | 6.4 | 14.5 | 0.00 | 0.00 | 0.00 | 67 | 1020.2 |
| 20260506190004 | 18 | 5 | 6.4 | 12.9 | 0.00 | 0.00 | 0.00 | 68 | 1020.2 |
| 20260506185503 | 18 | 19 | 6.4 | 14.5 | 0.00 | 0.00 | 0.00 | 68 | 1020.2 |
| 20260506185003 | 18 | 17 | 6.4 | 14.5 | 0.00 | 0.00 | 0.00 | 67 | 1020.2 |
| 20260506184503 | 18 | 12 | 6.4 | 14.5 | 0.00 | 0.00 | 0.00 | 68 | 1020.3 |
| 20260506184003 | 18 | 6 | 6.4 | 12.9 | 0.00 | 0.00 | 0.00 | 68 | 1020.3 |
| 20260506183503 | 18 | 356 | 6.4 | 12.9 | 0.00 | 0.00 | 0.00 | 69 | 1020.2 |
| 20260506183004 | 18 | 3 | 6.4 | 14.5 | 0.00 | 0.00 | 0.00 | 70 | 1020.3 |
| 20260506182503 | 18 | 15 | 6.4 | 14.5 | 0.00 | 0.00 | 0.00 | 69 | 1020.3 |
| 20260506182003 | 18 | 18 | 6.4 | 12.9 | 0.00 | 0.00 | 0.00 | 71 | 1020.4 |
| 20260506181503 | 18 | 26 | 6.4 | 14.5 | 0.00 | 0.00 | 0.00 | 71 | 1020.3 |
| 20260506181024 | 17 | 23 | 8.0 | 16.1 | 0.00 | 0.00 | 0.00 | 71 | 1020.2 |
| 20260506180503 | 17 | 20 | 8.0 | 16.1 | 0.00 | 0.00 | 0.00 | 72 | 1020.3 |
| 20260506180004 | 17 | 6 | 6.4 | 14.5 | 0.00 | 0.00 | 0.00 | 72 | 1020.3 |
| 20260506175503 | 17 | 355 | 6.4 | 12.9 | 0.00 | 0.00 | 0.00 | 72 | 1020.3 |
| 20260506175024 | 17 | 352 | 6.4 | 14.5 | 0.00 | 0.00 | 0.00 | 72 | 1020.2 |
| 20260506174503 | 16 | 337 | 8.0 | 14.5 | 0.00 | 0.00 | 0.00 | 72 | 1020.3 |
| 20260506174003 | 16 | 335 | 8.0 | 14.5 | 0.00 | 0.00 | 0.00 | 72 | 1020.4 |
| 20260506173524 | 16 | 335 | 8.0 | 14.5 | 0.00 | 0.00 | 0.00 | 72 | 1020.3 |
| 20260506173003 | 16 | 335 | 6.4 | 14.5 | 0.00 | 0.00 | 0.00 | 73 | 1020.4 |
| 20260506172503 | 16 | 333 | 6.4 | 14.5 | 0.00 | 0.00 | 0.00 | 73 | 1020.3 |
| 20260506172003 | 16 | 338 | 6.4 | 14.5 | 0.00 | 0.00 | 0.00 | 73 | 1020.4 |
| 20260506171503 | 16 | 338 | 6.4 | 12.9 | 0.00 | 0.00 | 0.00 | 73 | 1020.4 |
| 20260506171024 | 16 | 330 | 8.0 | 12.9 | 0.00 | 0.00 | 0.00 | 73 | 1020.4 |
| 20260506170503 | 16 | 325 | 8.0 | 12.9 | 0.00 | 0.00 | 0.00 | 74 | 1020.6 |
| 20260506170003 | 16 | 322 | 6.4 | 12.9 | 0.00 | 0.00 | 0.00 | 73 | 1020.5 |
| 20260506165503 | 16 | 323 | 6.4 | 12.9 | 0.00 | 0.00 | 0.00 | 73 | 1020.5 |
| 20260506165003 | 16 | 315 | 4.8 | 11.3 | 0.00 | 0.00 | 0.00 | 73 | 1020.6 |
| 20260506164503 | 16 | 321 | 4.8 | 11.3 | 0.00 | 0.00 | 0.00 | 73 | 1020.5 |
| 20260506164003 | 16 | 317 | 4.8 | 11.3 | 0.00 | 0.00 | 0.00 | 72 | 1020.5 |
| 20260506163503 | 16 | 312 | 4.8 | 11.3 | 0.00 | 0.00 | 0.00 | 73 | 1020.5 |
| 20260506163003 | 16 | 306 | 3.2 | 12.9 | 0.00 | 0.00 | 0.00 | 74 | 1020.4 |
| 20260506162503 | 16 | 292 | 3.2 | 12.9 | 0.00 | 0.00 | 0.00 | 75 | 1020.5 |
| 20260506162003 | 15 | 287 | 3.2 | 11.3 | 0.00 | 0.00 | 0.00 | 77 | 1020.5 |
| 20260506161503 | 15 | 302 | 4.8 | 9.7 | 0.00 | 0.00 | 0.00 | 76 | 1020.6 |
| 20260506161003 | 15 | 304 | 4.8 | 9.7 | 0.00 | 0.00 | 0.00 | 76 | 1020.5 |
| 20260506160503 | 15 | 274 | 4.8 | 11.3 | 0.00 | 0.00 | 0.00 | 76 | 1020.6 |
| 20260506160003 | 15 | 266 | 3.2 | 11.3 | 0.00 | 0.00 | 0.00 | 76 | 1020.5 |
| 20260506155503 | 15 | 260 | 3.2 | 6.4 | 0.00 | 0.00 | 0.00 | 77 | 1020.6 |
| 20260506155003 | 14 | 225 | 3.2 | 8.0 | 0.00 | 0.00 | 0.00 | 77 | 1020.5 |
| 20260506154503 | 14 | 191 | 3.2 | 8.0 | 0.00 | 0.00 | 0.00 | 77 | 1020.5 |
| 20260506154024 | 14 | 204 | 4.8 | 11.3 | 0.00 | 0.00 | 0.00 | 77 | 1020.5 |
| 20260506153503 | 14 | 223 | 3.2 | 11.3 | 0.00 | 0.00 | 0.00 | 77 | 1020.5 |
| 20260506153003 | 14 | 252 | 3.2 | 9.7 | 0.00 | 0.00 | 0.00 | 78 | 1020.5 |
| 20260506152503 | 14 | 246 | 4.8 | 9.7 | 0.00 | 0.00 | 0.00 | 78 | 1020.4 |
| 20260506152003 | 14 | 240 | 4.8 | 9.7 | 0.00 | 0.00 | 0.00 | 79 | 1020.3 |
| 20260506151503 | 14 | 254 | 3.2 | 9.7 | 0.00 | 0.00 | 0.00 | 79 | 1020.4 |
| 20260506151003 | 14 | 265 | 4.8 | 9.7 | 0.00 | 0.00 | 0.00 | 80 | 1020.4 |
| 20260506150503 | 14 | 272 | 4.8 | 11.3 | 0.00 | 0.00 | 0.00 | 80 | 1020.3 |
| 20260506150003 | 13 | 269 | 6.4 | 11.3 | 0.00 | 0.00 | 0.00 | 80 | 1020.3 |
| 20260506145503 | 13 | 258 | 4.8 | 11.3 | 0.00 | 0.00 | 0.00 | 80 | 1020.3 |
| 20260506145003 | 13 | 245 | 4.8 | 9.7 | 0.00 | 0.00 | 0.00 | 81 | 1020.4 |
| 20260506144503 | 13 | 248 | 4.8 | 8.0 | 0.00 | 0.00 | 0.00 | 81 | 1020.4 |
| 20260506144003 | 13 | 254 | 4.8 | 6.4 | 0.00 | 0.00 | 0.00 | 81 | 1020.2 |
| 20260506143503 | 13 | 246 | 3.2 | 6.4 | 0.00 | 0.00 | 0.00 | 82 | 1020.4 |
| 20260506143003 | 13 | 237 | 1.6 | 6.4 | 0.00 | 0.00 | 0.00 | 82 | 1020.3 |
| 20260506142503 | 13 | 237 | 1.6 | 4.8 | 0.00 | 0.00 | 0.00 | 82 | 1020.2 |
| 20260506142003 | 13 | 245 | 1.6 | 4.8 | 0.00 | 0.00 | 0.00 | 82 | 1020.1 |
| 20260506141503 | 13 | 269 | 1.6 | 6.4 | 0.00 | 0.00 | 0.00 | 82 | 1020.1 |
| 20260506141003 | 13 | 269 | 3.2 | 6.4 | 0.00 | 0.00 | 0.00 | 83 | 1019.9 |
| 20260506140503 | 13 | 268 | 3.2 | 6.4 | 0.00 | 0.00 | 0.00 | 83 | 1019.8 |
| 20260506140003 | 13 | 266 | 1.6 | 6.4 | 0.00 | 0.00 | 0.00 | 83 | 1019.8 |
| 20260506135524 | 13 | 263 | 1.6 | 6.4 | 0.00 | 0.00 | 0.00 | 83 | 1019.7 |
| 20260506135003 | 13 | 272 | 1.6 | 4.8 | 0.00 | 0.00 | 0.00 | 83 | 1019.7 |
| 20260506134503 | 13 | 272 | 3.2 | 4.8 | 0.00 | 0.00 | 0.00 | 83 | 1019.6 |
| 20260506134003 | 13 | 272 | 3.2 | 6.4 | 0.00 | 0.00 | 0.00 | 83 | 1019.7 |
| 20260506133503 | 13 | 274 | 3.2 | 6.4 | 0.00 | 0.00 | 0.00 | 83 | 1019.6 |
| 20260506133024 | 13 | 273 | 3.2 | 6.4 | 0.00 | 0.00 | 0.00 | 83 | 1019.5 |
| 20260506132503 | 13 | 271 | 3.2 | 6.4 | 0.00 | 0.00 | 0.00 | 83 | 1019.5 |
| 20260506132003 | 13 | 272 | 1.6 | 6.4 | 0.00 | 0.00 | 0.00 | 83 | 1019.4 |
| 20260506131524 | 13 | 267 | 3.2 | 6.4 | 0.00 | 0.00 | 0.00 | 83 | 1019.4 |
| 20260506131003 | 13 | 266 | 3.2 | 6.4 | 0.00 | 0.00 | 0.00 | 83 | 1019.3 |
| 20260506130503 | 13 | 271 | 1.6 | 6.4 | 0.00 | 0.00 | 0.00 | 83 | 1019.4 |
| 20260506130003 | 13 | 274 | 1.6 | 6.4 | 0.00 | 0.00 | 0.00 | 83 | 1019.4 |
| 20260506125503 | 13 | 277 | 1.6 | 6.4 | 0.00 | 0.00 | 0.00 | 83 | 1019.3 |
| 20260506125003 | 13 | 273 | 3.2 | 6.4 | 0.00 | 0.00 | 0.00 | 82 | 1019.3 |
| 20260506124524 | 13 | 272 | 3.2 | 4.8 | 0.00 | 0.00 | 0.00 | 82 | 1019.1 |
| 20260506124003 | 13 | 282 | 3.2 | 6.4 | 0.00 | 0.00 | 0.00 | 82 | 1019.1 |
| 20260506123503 | 13 | 301 | 3.2 | 6.4 | 0.00 | 0.00 | 0.00 | 82 | 1019.2 |
| 20260506123003 | 13 | 309 | 3.2 | 9.7 | 0.00 | 0.00 | 0.00 | 82 | 1019.2 |
| 20260506122524 | 13 | 308 | 4.8 | 9.7 | 0.00 | 0.00 | 0.00 | 82 | 1019.1 |
| 20260506122003 | 13 | 319 | 4.8 | 12.9 | 0.00 | 0.00 | 0.00 | 82 | 1019.2 |
| 20260506121503 | 13 | 321 | 4.8 | 9.7 | 0.00 | 0.00 | 0.00 | 82 | 1019.1 |
| 20260506121003 | 13 | 317 | 4.8 | 9.7 | 0.00 | 0.00 | 0.00 | 82 | 1019.1 |
| 20260506120503 | 13 | 317 | 3.2 | 9.7 | 0.00 | 0.00 | 0.00 | 83 | 1019.1 |
| 20260506120003 | 13 | 312 | 1.6 | 9.7 | 0.00 | 0.00 | 0.00 | 83 | 1019.0 |
| 20260506115503 | 13 | 288 | 1.6 | 9.7 | 0.00 | 0.00 | 0.00 | 82 | 1019.0 |
| 20260506115003 | 13 | 292 | 3.2 | 9.7 | 0.00 | 0.00 | 0.00 | 83 | 1019.0 |
| 20260506114503 | 13 | 303 | 1.6 | 6.4 | 0.00 | 0.03 | 0.00 | 83 | 1019.0 |
| 20260506114003 | 13 | 285 | 1.6 | 11.3 | 0.00 | 0.03 | 0.00 | 83 | 1019.1 |
| 20260506113503 | 13 | 282 | 3.2 | 11.3 | 0.00 | 0.03 | 0.00 | 83 | 1019.1 |
| 20260506113003 | 13 | 277 | 3.2 | 9.7 | 0.00 | 0.03 | 0.00 | 83 | 1018.9 |
| 20260506112503 | 13 | 269 | 3.2 | 9.7 | 0.00 | 0.03 | 0.00 | 83 | 1019.0 |
| 20260506112003 | 13 | 272 | 1.6 | 6.4 | 0.00 | 0.03 | 0.00 | 83 | 1019.0 |
| 20260506111503 | 13 | 287 | 1.6 | 6.4 | 0.00 | 0.03 | 0.00 | 83 | 1019.0 |
| 20260506111004 | 13 | 297 | 1.6 | 9.7 | 0.00 | 0.03 | 0.00 | 83 | 1018.9 |
| 20260506110503 | 13 | 295 | 1.6 | 9.7 | 0.00 | 0.03 | 0.00 | 83 | 1018.9 |
| 20260506110003 | 13 | 276 | 1.6 | 6.4 | 0.00 | 0.03 | 0.00 | 83 | 1019.0 |
| 20260506105503 | 13 | 273 | 1.6 | 4.8 | 0.00 | 0.03 | 0.00 | 83 | 1018.8 |
| 20260506105003 | 13 | 268 | 1.6 | 4.8 | 0.00 | 0.03 | 0.00 | 83 | 1018.8 |
| 20260506104503 | 13 | 268 | 1.6 | 4.8 | 0.00 | 0.03 | 0.00 | 83 | 1018.7 |
| 20260506104003 | 13 | 271 | 1.6 | 4.8 | 0.00 | 0.03 | 0.00 | 83 | 1018.8 |
| 20260506103524 | 13 | 295 | 0.0 | 3.2 | 0.00 | 0.03 | 0.00 | 83 | 1018.8 |
| 20260506103003 | 13 | 256 | 0.0 | 1.6 | 0.00 | 0.03 | 0.00 | 83 | 1018.8 |
| 20260506102524 | 13 | 256 | 0.0 | 1.6 | 0.00 | 0.03 | 0.00 | 83 | 1018.7 |
| 20260506102003 | 13 | 0 | 0.0 | 4.8 | 0.00 | 0.03 | 0.00 | 83 | 1018.7 |
| 20260506101503 | 13 | 256 | 0.0 | 4.8 | 0.00 | 0.03 | 0.00 | 83 | 1018.7 |
| 20260506101003 | 13 | 261 | 1.6 | 4.8 | 0.00 | 0.03 | 0.00 | 83 | 1018.7 |
| 20260506100503 | 13 | 262 | 1.6 | 6.4 | 0.00 | 0.03 | 0.00 | 83 | 1018.7 |
| 20260506100003 | 13 | 262 | 1.6 | 6.4 | 0.00 | 0.03 | 0.00 | 83 | 1018.6 |
| 20260506095503 | 13 | 283 | 1.6 | 6.4 | 0.00 | 0.03 | 0.00 | 83 | 1018.7 |
| 20260506095003 | 13 | 283 | 1.6 | 6.4 | 0.00 | 0.03 | 0.00 | 83 | 1018.7 |
| 20260506094503 | 13 | 280 | 1.6 | 6.4 | 0.00 | 0.03 | 0.00 | 83 | 1018.8 |
| 20260506094003 | 13 | 282 | 1.6 | 6.4 | 0.00 | 0.03 | 0.00 | 83 | 1018.7 |
| 20260506093524 | 13 | 288 | 1.6 | 6.4 | 0.00 | 0.03 | 0.00 | 83 | 1018.7 |
| 20260506093003 | 13 | 279 | 0.0 | 4.8 | 0.00 | 0.03 | 0.00 | 83 | 1018.8 |
| 20260506092503 | 13 | 283 | 1.6 | 4.8 | 0.00 | 0.03 | 0.00 | 83 | 1018.6 |
| 20260506092003 | 13 | 305 | 1.6 | 6.4 | 0.00 | 0.03 | 0.00 | 83 | 1018.7 |
| 20260506091503 | 13 | 311 | 1.6 | 6.4 | 0.00 | 0.03 | 0.00 | 82 | 1018.6 |
| 20260506091003 | 13 | 280 | 0.0 | 3.2 | 0.00 | 0.03 | 0.00 | 82 | 1018.6 |
| 20260506090503 | 13 | 279 | 1.6 | 3.2 | 0.00 | 0.05 | 0.00 | 82 | 1018.6 |
| 20260506090034 | 13 | 279 | 1.6 | 3.2 | 0.00 | 0.05 | 0.00 | 82 | 1018.6 |
| 20260506085503 | 13 | 269 | 0.0 | 8.0 | 0.00 | 0.08 | 0.00 | 82 | 1018.7 |
| 20260506085003 | 13 | 267 | 1.6 | 8.0 | 0.00 | 0.10 | 0.00 | 82 | 1018.6 |
| 20260506084503 | 13 | 268 | 3.2 | 8.0 | 0.00 | 0.13 | 0.00 | 82 | 1018.5 |
| 20260506084003 | 13 | 270 | 3.2 | 8.0 | 0.00 | 0.15 | 0.00 | 82 | 1018.6 |
| 20260506083503 | 13 | 263 | 3.2 | 9.7 | 0.00 | 0.15 | 0.00 | 82 | 1018.7 |
| 20260506083003 | 13 | 262 | 4.8 | 9.7 | 0.00 | 0.15 | 0.00 | 82 | 1018.7 |
| 20260506082503 | 13 | 265 | 3.2 | 9.7 | 0.00 | 0.15 | 0.00 | 82 | 1018.6 |
| 20260506082003 | 13 | 265 | 3.2 | 8.0 | 0.00 | 0.15 | 0.00 | 82 | 1018.7 |
| 20260506081503 | 13 | 266 | 3.2 | 8.0 | 0.00 | 0.15 | 0.00 | 82 | 1018.7 |
| 20260506081024 | 13 | 271 | 3.2 | 6.4 | 0.00 | 0.15 | 0.00 | 82 | 1018.6 |
| 20260506080503 | 13 | 268 | 3.2 | 9.7 | 0.00 | 0.15 | 0.00 | 82 | 1018.7 |
| 20260506073503 | 13 | 266 | 3.2 | 6.4 | 0.00 | 0.20 | 0.00 | 83 | 1018.4 |
| 20260506073003 | 13 | 274 | 1.6 | 6.4 | 0.00 | 0.20 | 0.00 | 83 | 1018.4 |
| 20260506072503 | 13 | 289 | 0.0 | 6.4 | 0.00 | 0.20 | 0.00 | 83 | 1018.4 |
| 20260506072003 | 13 | 248 | 0.0 | 1.6 | 0.00 | 0.23 | 0.00 | 83 | 1018.4 |
| 20260506071503 | 13 | 248 | 0.0 | 1.6 | 0.00 | 0.23 | 0.00 | 83 | 1018.4 |
| 20260506071003 | 13 | 248 | 0.0 | 3.2 | 0.00 | 0.23 | 0.00 | 83 | 1018.3 |
| 20260506070503 | 13 | 248 | 0.0 | 3.2 | 0.00 | 0.23 | 0.00 | 83 | 1018.2 |
| 20260506062503 | 13 | 237 | 0.0 | 3.2 | 0.00 | 0.23 | 0.23 | 82 | 1018.2 |
| 20260506062003 | 13 | 237 | 0.0 | 1.6 | 0.00 | 0.23 | 0.23 | 82 | 1018.2 |
| 20260506061503 | 13 | 237 | 0.0 | 1.6 | 0.00 | 0.23 | 0.23 | 82 | 1018.2 |
| 20260506061003 | 13 | 0 | 0.0 | 3.2 | 0.00 | 0.23 | 0.23 | 82 | 1017.9 |
| 20260506060503 | 13 | 0 | 0.0 | 3.2 | 0.00 | 0.23 | 0.23 | 82 | 1017.9 |
| 20260506051003 | 13 | 266 | 1.6 | 4.8 | 0.00 | 0.23 | 0.23 | 80 | 1017.7 |
| 20260506050503 | 13 | 268 | 3.2 | 4.8 | 0.00 | 0.23 | 0.23 | 80 | 1017.6 |
| 20260506045003 | 13 | 268 | 3.2 | 8.0 | 0.00 | 0.23 | 0.23 | 80 | 1017.4 |
| 20260506044503 | 13 | 275 | 3.2 | 8.0 | 0.00 | 0.23 | 0.23 | 80 | 1017.4 |
| 20260506044003 | 13 | 276 | 3.2 | 6.4 | 0.00 | 0.23 | 0.23 | 79 | 1017.4 |
| 20260506043503 | 13 | 273 | 3.2 | 6.4 | 0.00 | 0.23 | 0.23 | 79 | 1017.3 |
| 20260506043003 | 14 | 274 | 3.2 | 6.4 | 0.00 | 0.23 | 0.23 | 79 | 1017.4 |
| 20260506042503 | 14 | 264 | 3.2 | 6.4 | 0.00 | 0.23 | 0.23 | 79 | 1017.2 |
| 20260506042003 | 14 | 264 | 4.8 | 11.3 | 0.00 | 0.23 | 0.23 | 79 | 1017.3 |
| 20260506041503 | 14 | 269 | 4.8 | 11.3 | 0.00 | 0.23 | 0.23 | 79 | 1017.2 |